Location: Huberhof
(49.2050°N, 7.4980°E)
Time: 05:24:19
(UTC+00:00)

Meteor 2-3 Rocket - Pass Details

Date: 29 October 2020
Orbit: 842 x 885 km, 81.2° (Epoch: 25 November)

Event Time Altitude Azimuth Distance (km) Brightness Sun altitude
Rises 18:11:15 0° 352° (N) 3,458 7.0 -19.8°
Reaches altitude 10° 18:13:50 10° 360° (N) 2,523 6.2 -20.2°
Maximum altitude 18:19:14 41° 70° (ENE) 1,243 4.1 -21.1°
Enters shadow 18:19:34 41° 79° (ENE) 1,250 4.1 -21.1°
